Location: Unspecified
(0.0000°N, 0.0000°E)
Time: 13:23:02
(UTC+00:00)

LightSail 2 - Pass Details

Date: 17 August 2019
Orbit: 701 x 732 km, 24.0° (Epoch: 21 August)

Event Time Altitude Azimuth Distance (km) Brightness Sun altitude
Rises 18:31:20 0° 260° (W) 3,091 9.9 -6.6°
Reaches altitude 10° 18:33:55 10° 268° (W) 2,166 9.1 -7.3°
Maximum altitude 18:38:39 38° 335° (NNW) 1,068 6.5 -8.4°
Drops below altitude 10° 18:43:20 10° 43° (NE) 2,149 7.3 -9.5°
Sets 18:45:54 0° 51° (NE) 3,063 8.1 -10.2°
